Hourly Weather Kozlyaki

Today, 22 October, Thursday

Time Temperature Precipitation Wind Pressure Humidity
00:00 +6°C° 0 mm 2 mps 749 mmHg 95%
01:00 +5°C° 0 mm 3 mps 749 mmHg 95%
02:00 +5°C° 0 mm 3 mps 749 mmHg 95%
03:00 +5°C° 0.1 mm 3 mps 748 mmHg 94%
04:00 +5°C° 0.1 mm 4 mps 747 mmHg 94%
05:00 +5°C° 0.1 mm 4 mps 746 mmHg 93%
06:00 +6°C° 1.4 mm 4 mps 746 mmHg 93%
07:00 +6°C° 1.4 mm 5 mps 745 mmHg 93%
08:00 +6°C° 1.4 mm 5 mps 744 mmHg 93%
09:00 +7°C° 0.5 mm 5 mps 744 mmHg 93%
10:00 +7°C° 0.5 mm 5 mps 743 mmHg 92%
11:00 +8°C° 0.5 mm 5 mps 743 mmHg 91%
12:00 +8°C° 0 mm 5 mps 742 mmHg 90%
13:00 +9°C° 0 mm 5 mps 742 mmHg 88%
14:00 +9°C° 0 mm 5 mps 741 mmHg 86%
15:00 +10°C° 0.2 mm 5 mps 741 mmHg 87%
16:00 +10°C° 0.2 mm 5 mps 740 mmHg 88%
17:00 +10°C° 0.2 mm 6 mps 739 mmHg 88%
18:00 +11°C° 0.5 mm 6 mps 739 mmHg 88%
19:00 +11°C° 0.5 mm 7 mps 739 mmHg 87%
20:00 +11°C° 0.5 mm 7 mps 739 mmHg 86%
21:00 +11°C° 0 mm 7 mps 740 mmHg 85%
22:00 +11°C° 0 mm 7 mps 740 mmHg 83%
23:00 +11°C° 0 mm 7 mps 741 mmHg 81%

Tomorrow, 23 October, Friday

Time Temperature Precipitation Wind Pressure Humidity
00:00 +11°C° 0 mm 7 mps 741 mmHg 83%
01:00 +11°C° 0 mm 6 mps 742 mmHg 84%
02:00 +12°C° 0 mm 5 mps 743 mmHg 86%
03:00 +10°C° 0 mm 5 mps 743 mmHg 84%
04:00 +10°C° 0 mm 5 mps 743 mmHg 83%
05:00 +10°C° 0 mm 5 mps 743 mmHg 82%
06:00 +10°C° 0 mm 5 mps 743 mmHg 83%
07:00 +9°C° 0 mm 5 mps 743 mmHg 85%
08:00 +9°C° 0 mm 5 mps 742 mmHg 87%
09:00 +10°C° 0.1 mm 5 mps 742 mmHg 87%
10:00 +10°C° 0.1 mm 5 mps 742 mmHg 86%
11:00 +12°C° 0.1 mm 5 mps 742 mmHg 86%
12:00 +12°C° 0.8 mm 5 mps 742 mmHg 86%
13:00 +12°C° 0.8 mm 5 mps 741 mmHg 86%
14:00 +12°C° 0.8 mm 5 mps 741 mmHg 86%
15:00 +10°C° 0.5 mm 5 mps 741 mmHg 84%
16:00 +10°C° 0.5 mm 5 mps 741 mmHg 82%
17:00 +10°C° 0.5 mm 5 mps 741 mmHg 80%
18:00 +9°C° 0 mm 5 mps 741 mmHg 82%
19:00 +9°C° 0 mm 5 mps 742 mmHg 84%
20:00 +8°C° 0 mm 5 mps 742 mmHg 87%
21:00 +8°C° 0 mm 4 mps 742 mmHg 88%
22:00 +8°C° 0 mm 4 mps 743 mmHg 90%
23:00 +8°C° 0 mm 3 mps 743 mmHg 91%

Day after tomorrow, 24 October, Saturday

Time Temperature Precipitation Wind Pressure Humidity
00:00 +8°C° 0 mm 3 mps 744 mmHg 92%
01:00 +8°C° 0 mm 3 mps 744 mmHg 92%
02:00 +8°C° 0 mm 3 mps 745 mmHg 92%
03:00 +8°C° 0 mm 3 mps 745 mmHg 93%
04:00 +8°C° 0 mm 2 mps 745 mmHg 93%
05:00 +8°C° 0 mm 2 mps 745 mmHg 94%
06:00 +8°C° 0.1 mm 3 mps 745 mmHg 93%
07:00 +8°C° 0.1 mm 3 mps 745 mmHg 92%
08:00 +8°C° 0.1 mm 3 mps 745 mmHg 92%
09:00 +8°C° 0 mm 3 mps 745 mmHg 89%
10:00 +8°C° 0 mm 3 mps 746 mmHg 87%
11:00 +8°C° 0 mm 3 mps 746 mmHg 85%
12:00 +9°C° 0 mm 3 mps 746 mmHg 83%
13:00 +9°C° 0 mm 3 mps 746 mmHg 81%
14:00 +9°C° 0 mm 3 mps 746 mmHg 80%
15:00 +8°C° 0 mm 3 mps 745 mmHg 83%
16:00 +8°C° 0 mm 2 mps 745 mmHg 87%
17:00 +7°C° 0 mm 2 mps 745 mmHg 90%
18:00 +7°C° 0.1 mm 2 mps 745 mmHg 90%
19:00 +8°C° 0.1 mm 3 mps 745 mmHg 90%
20:00 +8°C° 0.1 mm 3 mps 745 mmHg 90%
21:00 +8°C° 0.7 mm 3 mps 744 mmHg 90%
22:00 +8°C° 0.7 mm 4 mps 744 mmHg 91%
23:00 +8°C° 0.7 mm 4 mps 744 mmHg 91%

, 25 October, Sunday

Time Temperature Precipitation Wind Pressure Humidity
00:00 +7°C° 0.2 mm 4 mps 745 mmHg 90%
01:00 +7°C° 0.2 mm 4 mps 745 mmHg 89%
02:00 +7°C° 0.2 mm 4 mps 745 mmHg 88%
03:00 +6°C° 0 mm 4 mps 746 mmHg 89%
04:00 +6°C° 0 mm 4 mps 747 mmHg 91%
05:00 +5°C° 0 mm 3 mps 747 mmHg 92%
06:00 +5°C° 0 mm 3 mps 748 mmHg 93%
07:00 +5°C° 0 mm 3 mps 748 mmHg 94%
08:00 +5°C° 0 mm 3 mps 749 mmHg 95%
09:00 +7°C° 0 mm 3 mps 749 mmHg 93%
10:00 +7°C° 0 mm 2 mps 750 mmHg 91%
11:00 +8°C° 0 mm 2 mps 751 mmHg 88%
12:00 +8°C° 0 mm 2 mps 751 mmHg 88%
13:00 +8°C° 0 mm 2 mps 751 mmHg 87%
14:00 +9°C° 0 mm 2 mps 751 mmHg 87%
15:00 +8°C° 0 mm 2 mps 751 mmHg 87%
16:00 +8°C° 0 mm 2 mps 752 mmHg 88%
17:00 +8°C° 0 mm 2 mps 752 mmHg 89%
18:00 +8°C° 0 mm 2 mps 752 mmHg 89%
19:00 +9°C° 0 mm 1 mps 753 mmHg 89%
20:00 +9°C° 0 mm 1 mps 753 mmHg 89%
21:00 +9°C° 0 mm 1 mps 753 mmHg 90%
22:00 +9°C° 0 mm 1 mps 753 mmHg 90%
23:00 +9°C° 0 mm 1 mps 754 mmHg 91%

25 October, Sunday

Time Temperature Precipitation Wind Pressure Humidity
00:00 +7°C° 0.2 mm 4 mps 745 mmHg 90%
01:00 +7°C° 0.2 mm 4 mps 745 mmHg 89%
02:00 +7°C° 0.2 mm 4 mps 745 mmHg 88%
03:00 +6°C° 0 mm 4 mps 746 mmHg 89%
04:00 +6°C° 0 mm 4 mps 747 mmHg 91%
05:00 +5°C° 0 mm 3 mps 747 mmHg 92%
06:00 +5°C° 0 mm 3 mps 748 mmHg 93%
07:00 +5°C° 0 mm 3 mps 748 mmHg 94%
08:00 +5°C° 0 mm 3 mps 749 mmHg 95%
09:00 +7°C° 0 mm 3 mps 749 mmHg 93%
10:00 +7°C° 0 mm 2 mps 750 mmHg 91%
11:00 +8°C° 0 mm 2 mps 751 mmHg 88%
12:00 +8°C° 0 mm 2 mps 751 mmHg 88%
13:00 +8°C° 0 mm 2 mps 751 mmHg 87%
14:00 +9°C° 0 mm 2 mps 751 mmHg 87%
15:00 +8°C° 0 mm 2 mps 751 mmHg 87%
16:00 +8°C° 0 mm 2 mps 752 mmHg 88%
17:00 +8°C° 0 mm 2 mps 752 mmHg 89%
18:00 +8°C° 0 mm 2 mps 752 mmHg 89%
19:00 +9°C° 0 mm 1 mps 753 mmHg 89%
20:00 +9°C° 0 mm 1 mps 753 mmHg 89%
21:00 +9°C° 0 mm 1 mps 753 mmHg 90%
22:00 +9°C° 0 mm 1 mps 753 mmHg 90%
23:00 +9°C° 0 mm 1 mps 754 mmHg 91%

26 October, Monday

Time Temperature Precipitation Wind Pressure Humidity
00:00 +9°C° 0 mm 1 mps 754 mmHg 91%
01:00 +8°C° 0 mm 2 mps 754 mmHg 91%
02:00 +8°C° 0 mm 2 mps 754 mmHg 90%
03:00 +8°C° 0 mm 2 mps 754 mmHg 89%
04:00 +8°C° 0 mm 2 mps 754 mmHg 88%
05:00 +8°C° 0 mm 2 mps 754 mmHg 87%
06:00 +8°C° 0 mm 2 mps 755 mmHg 88%
07:00 +8°C° 0 mm 2 mps 755 mmHg 90%
08:00 +7°C° 0 mm 2 mps 755 mmHg 91%
09:00 +8°C° 0 mm 3 mps 755 mmHg 88%
10:00 +10°C° 0 mm 3 mps 755 mmHg 84%
11:00 +11°C° 0 mm 3 mps 755 mmHg 81%
12:00 +11°C° 0 mm 3 mps 755 mmHg 79%
13:00 +11°C° 0 mm 3 mps 755 mmHg 77%
14:00 +11°C° 0 mm 3 mps 755 mmHg 76%
15:00 +10°C° 0 mm 3 mps 755 mmHg 80%
16:00 +9°C° 0 mm 3 mps 755 mmHg 83%
17:00 +8°C° 0 mm 2 mps 755 mmHg 87%
18:00 +8°C° 0 mm 2 mps 755 mmHg 86%
19:00 +8°C° 0 mm 2 mps 755 mmHg 85%
20:00 +8°C° 0 mm 3 mps 755 mmHg 85%
21:00 +8°C° 0 mm 3 mps 755 mmHg 84%
22:00 +8°C° 0 mm 3 mps 755 mmHg 83%
23:00 +8°C° 0 mm 3 mps 755 mmHg 82%

27 October, Tuesday

Time Temperature Precipitation Wind Pressure Humidity
00:00 +8°C° 0 mm 3 mps 754 mmHg 84%
01:00 +7°C° 0 mm 3 mps 754 mmHg 86%
02:00 +7°C° 0 mm 3 mps 754 mmHg 88%
03:00 +7°C° 0 mm 3 mps 754 mmHg 89%
04:00 +7°C° 0 mm 3 mps 753 mmHg 89%
05:00 +5°C° 0 mm 3 mps 753 mmHg 90%
06:00 +7°C° 0.1 mm 3 mps 753 mmHg 89%
07:00 +7°C° 0.1 mm 3 mps 753 mmHg 88%
08:00 +6°C° 0.1 mm 4 mps 753 mmHg 88%
09:00 +6°C° 0.4 mm 4 mps 753 mmHg 88%
10:00 +7°C° 0.4 mm 4 mps 753 mmHg 89%
11:00 +7°C° 0.4 mm 4 mps 752 mmHg 90%
12:00 +7°C° 0.7 mm 4 mps 752 mmHg 90%
13:00 +7°C° 0.7 mm 4 mps 752 mmHg 89%
14:00 +8°C° 0.7 mm 4 mps 752 mmHg 89%
15:00 +8°C° 0 mm 4 mps 752 mmHg 89%
16:00 +8°C° 0 mm 4 mps 752 mmHg 90%
17:00 +8°C° 0 mm 4 mps 752 mmHg 90%
18:00 +8°C° 0 mm 4 mps 752 mmHg 90%
19:00 +8°C° 0 mm 4 mps 752 mmHg 90%
20:00 +8°C° 0 mm 4 mps 752 mmHg 89%
21:00 +8°C° 0 mm 4 mps 752 mmHg 89%
22:00 +8°C° 0 mm 4 mps 751 mmHg 90%
23:00 +8°C° 0 mm 4 mps 751 mmHg 90%
Show more